Regional Weather Roundup
Issued by NWS

Home | Current Version | Previous Version | Graphics & Text | Print | Product List | Glossary On
Versions: 1 2 3 4 5 6 7 8 9 10 11 12 13 14 15 16 17 18 19 20 21 22 23 24 25 26 27 28 29 30 31 32 33 34 35 36 37 38 39 40 41 42 43 44 45 46 47 48 49 50
000
ASUS43 KMKX 242200
RWRWI

WISCONSIN REGIONAL WEATHER ROUNDUP
NATIONAL WEATHER SERVICE MILWAUKEE/SULLIVAN WI
500 PM CDT FRI OCT 24 2014

NOTE: "FAIR" INDICATES FEW OR NO CLOUDS BELOW 12,000 FEET WITH NO
SIGNIFICANT WEATHER AND/OR OBSTRUCTIONS TO VISIBILITY.

WIZ001-002-006>008-014>016-023>028-242300-
NORTHWEST WISCONSIN

CITY           SKY/WX    TMP DP  RH WIND       PRES   REMARKS
SUPERIOR ARPT  CLEAR     70  51  51 W13       29.74F
ASHLAND        CLEAR     65  51  60 S15G23    29.78R
HAYWARD        CLOUDY    60  51  72 SW13      29.83S
SIREN          MOSUNNY   62  52  70 S9        29.83S
CUMBERLAND     CLOUDY    55  52  88 SW7       29.84F
RICE LAKE      CLOUDY    58  52  80 S9        29.87R
CHETEK         CLOUDY    58  53  83 S5        29.86R
LADYSMITH      CLOUDY    58  51  75 SW6       29.88R
EAU CLAIRE     NOT AVBL
MENOMONIE      CLOUDY    58  56  94 S3        29.86S FOG
NEW RICHMOND   CLOUDY    59  56  89 S5        29.85S
OSCEOLA        MOSUNNY   61  57  86 S7        29.87S
$$

WIZ003>005-009-010-017-018-242300-
NORTH CENTRAL WISCONSIN

CITY           SKY/WX    TMP DP  RH WIND       PRES   REMARKS
MANITOWISH WTR MOCLDY    60  48  66 S7        29.82F
ARBOR VITAE    PTCLDY    59  48  65 S7        29.84F
WOODRUFF       PTCLDY    59  48  65 S7        29.84F
RHINELANDER    CLOUDY    57  44  62 S7        29.87S
EAGLE RIVER    PTCLDY    60  42  51 SW5       29.84F
LAND O LAKES   CLEAR     62  42  47 S9        29.84F
PHILLIPS       CLOUDY    58  48  69 SW9       29.85R
TOMAHAWK       CLOUDY    57  46  66 CALM      29.87S
MEDFORD        CLOUDY    56  48  76 S8        29.86F
MERRILL        CLOUDY    57  49  75 S6        29.87S
$$

WIZ029-030-035-036-043>047-242300-
CENTRAL WISCONSIN

CITY           SKY/WX    TMP DP  RH WIND       PRES   REMARKS
WAUSAU         CLOUDY    57  47  69 S6        29.86F
MOSINEE        MOCLDY    55  52  88 S6        29.89S
MARSHFIELD     CLOUDY    58  50  75 S6        29.87S
STEVENS POINT  CLOUDY    57  49  76 S5        29.89F
WAUPACA        MOCLDY    58  52  81 SE3       29.91S
WAUTOMA        NOT AVBL
WISC RAPIDS    CLOUDY    59  50  72 S8        29.89F
CAMP DOUGLAS   CLOUDY    61  55  82 S3        29.88S
$$

WIZ011>013-019>022-031-037>040-048>050-242300-
NORTHEAST WISCONSIN

CITY           SKY/WX    TMP DP  RH WIND       PRES   REMARKS
ANTIGO         CLEAR     55  49  81 S7        29.88F
SHAWANO        CLOUDY    55  49  80 SW3       29.90F
OCONTO         CLEAR     55  49  79 SW5       29.90F
STURGEON BAY   CLEAR     55  48  76 CALM      29.92S
GREEN BAY      MOCLDY    53  49  86 S7        29.91F FOG
MANITOWOC      NOT AVBL
APPLETON       MOCLDY    54  50  87 S8        29.92F
CLINTONVILLE   MOCLDY    54  48  82 S7        29.90S
OSHKOSH        PTCLDY    56  51  84 S7        29.91F
$$

WIZ032>034-041-042-053>061-242300-
SOUTHWEST WISCONSIN

CITY           SKY/WX    TMP DP  RH WIND       PRES   REMARKS
LA CROSSE      CLOUDY    61  57  87 S5        29.87S
SPARTA         CLOUDY    63  51  64 S5        29.87F
VIROQUA        CLOUDY    59  57  94 SW12      29.90R
BOSCOBEL       CLOUDY    63  55  75 S5        29.90F
PRAIRIE DU CHI CLOUDY    59  56  90 CALM      29.90S FOG
PLATTEVILLE    PTSUNNY   61  55  82 SE12      29.91S
$$

WIZ056-057-062-063-064-067-068-242300-
SOUTH CENTRAL WISCONSIN

CITY           SKY/WX    TMP DP  RH WIND       PRES   REMARKS
REEDSBURG      CLOUDY    60  51  71 S7        29.89F
BARABOO/DELLS  MOCLDY    60  49  66 S10       29.89F
LONE ROCK      NOT AVBL
MINERAL POINT  PTSUNNY   61  52  72 S9        29.91S
MADISON        MOCLDY    61  50  67 S8        29.92F
MIDDLETON      PTCLDY    62  49  64 S7        29.92F
WATERTOWN      MOCLDY    56  51  85 S5        29.93F
MONROE         PTCLDY    59  50  72 S10       29.93F
JANESVILLE     MOCLDY    63  50  63 S6        29.93F
$$

WIZ051-052-058>065-066-070>072-242300-
SOUTHEAST WISCONSIN

CITY           SKY/WX    TMP DP  RH WIND       PRES   REMARKS
MILWAUKEE      MOCLDY    61  50  67 SW7       29.94F
WAUKESHA       NOT AVBL
MILWAUKEE/TIMM CLEAR     61  46  59 SW6       29.95S
RACINE         CLEAR     57  50  77 S6        29.97S
BURLINGTON     PTCLDY    60  49  68 SW7       29.94F
KENOSHA        CLEAR     59  52  77 SE6       29.95F
FOND DU LAC    MOCLDY    57  49  74 S8        29.91F
SHEBOYGAN      CLEAR     60  48  64 SW7       29.92F
WEST BEND      CLEAR     61  46  59 S6        29.93F
JUNEAU         MOCLDY    56  50  80 S7        29.94F
$$

LSZ147-162-242300-
LAKE SUPERIOR

STATION/POSITION TIME  TEMP    WIND        PRES    WAVE
                       AIR SEA DIR/SP/G            HT/PER
                 (UTC) (F)     (DEG/KT/KT) (MB)    (FT/S)
W MID LAKE BUOY  2050   49 47  140/  2/  2 1007.6F   1
DEVILS ISLAND    2100   51      50/  5/  5 1007.9F
PORT WING        2100   57      60/  5/  6 1008.1R
SAXON HARBOR     2100   71     200/ 12/ 18 1007.8F
$$

LMZ867-665-643>646-242300-
LAKE MICHIGAN

STATION/POSITION TIME  TEMP    WIND        PRES    WAVE
                       AIR SEA DIR/SP/G            HT/PER
                 (UTC) (F)     (DEG/KT/KT) (MB)    (FT/S)
CHAMBERS ISLAND  2100   50     200/  8/ 12 1012.9F
N MID LAKE BUOY  2050   49 51  210/ 16/ 19 1013.1F   2/ 3
NORTHPORT PIER   2100   53     170/  5/ 10 1012.9F
SISTER BAY       2012          240/  9/ 11   N/A
KEWAUNEE LAKESHO 2100   50     170/ 12/ 15 1012.5F
SHEBOYGAN LAKESH 2100   50 51  170/ 13/ 15 1014.0F
PORT WASHINGTON  2100   56     190/  4/  6 1014.6F
ATWATER BUOY     2100   53     150/ 10/ 12 1014.9F
MILWAUKEE LAKESH 2100   53     140/ 10/ 12   N/A
S MID LAKE BUOY  2050   52 54  200/  6/  8 1015.3F   1
KENOSHA   LAKESH 2100   55     150/  8/  9 1014.6F
$$

TC  - TEMPERATURE IN CELSIUS
VSB - VISIBILITY IN STATUTE MILES
WCI - WIND CHILL INDEX
HX  - HEAT INDEX




USA.gov is the U.S. government's official web portal to all federal, state and local government web resources and services.